This is the latest recevied weather packets stored in our database for station/object KD8NVS-13. If no packets are shown the sender has not sent any weather packets the latest 10 day(s).
| Time | Temp. | Humidity | Pressure | Rain* | Wind** | Luminosity | Snow |
|---|---|---|---|---|---|---|---|
| 1777592474 | 12.78° C | 45% | 1004.5 hPa | 0 mm | - | 39 W/m² | - |
| 1777592169 | 13.33° C | 45% | 1004.9 hPa | 0 mm | - | 35 W/m² | - |
| 1777591867 | 13.33° C | 44% | 1004.9 hPa | 0 mm | - | 44 W/m² | - |
| 1777591563 | 13.33° C | 44% | 1004.9 hPa | 0 mm | - | 60 W/m² | - |
| 1777591259 | 13.33° C | 44% | 1005.2 hPa | 0 mm | - | 59 W/m² | - |
| 1777590954 | 13.89° C | 43% | 1004.9 hPa | 0 mm | - | 76 W/m² | - |
| 1777590650 | 13.89° C | 42% | 1004.9 hPa | 0 mm | - | 88 W/m² | - |
| 1777590346 | 13.89° C | 44% | 1004.9 hPa | 0 mm | - | 97 W/m² | - |
| 1777590044 | 13.89° C | 43% | 1004.9 hPa | 0 mm | - | 116 W/m² | - |
| 1777589740 | 13.89° C | 43% | 1005.2 hPa | 0 mm | - | 94 W/m² | - |
| 1777589438 | 13.89° C | 41% | 1004.9 hPa | 0 mm | - | 161 W/m² | - |
| 1777589134 | 14.44° C | 41% | 1004.9 hPa | 0 mm | - | 160 W/m² | - |
| 1777588830 | 13.89° C | 41% | 1004.9 hPa | 0 mm | - | 170 W/m² | - |
| 1777588526 | 13.33° C | 42% | 1004.9 hPa | 0 mm | - | 189 W/m² | - |
| 1777588222 | 13.33° C | 44% | 1005.2 hPa | 0 mm | - | 67 W/m² | - |
| 1777587918 | 13.89° C | 43% | 1005.2 hPa | 0 mm | - | 60 W/m² | - |
| 1777587615 | 13.89° C | 42% | 1004.9 hPa | 0 mm | - | 265 W/m² | - |
| 1777587309 | 13.89° C | 42% | 1005.2 hPa | 0 mm | - | 309 W/m² | - |
| 1777587005 | 13.33° C | 44% | 1004.9 hPa | 0 mm | - | 293 W/m² | - |
| 1777586700 | 12.78° C | 45% | 1004.9 hPa | 0 mm | - | 91 W/m² | - |
| 1777586396 | 12.78° C | 45% | 1004.9 hPa | 0 mm | - | 97 W/m² | - |
| 1777586096 | 13.33° C | 46% | 1004.5 hPa | 0 mm | - | 74 W/m² | - |
| 1777585794 | 13.33° C | 45% | 1004.9 hPa | 0 mm | - | 75 W/m² | - |
| 1777585488 | 13.33° C | 45% | 1004.5 hPa | 0 mm | - | 378 W/m² | - |
| 1777585185 | 13.89° C | 44% | 1004.9 hPa | 0 mm | - | 400 W/m² | - |
* Rain latest hour (hover to see other rain measurements)
** Current wind speed in m/s (hover to see current wind gust speed)